{"data":{"norad_id":69407,"epoch":"2026-09-20T04:29:42.135936Z","epoch_age_seconds":61443,"freshness":"FRESH","line1":"1 69407U 26125G   26263.18729324  .00000029  00000+0  26153-4 0  9998","line2":"2 69407  88.9866 270.3401 0002139 107.3824 252.7561 13.51019121 14760","mean_motion":13.51019121,"eccentricity":0.0002139,"inclination_deg":88.9866,"raan_deg":270.3401,"arg_perigee_deg":107.3824,"mean_anomaly_deg":252.7561,"bstar":2.6153e-5,"rev_number":1476,"period_min":106.58620426735,"perigee_km":1066.9184846342,"apogee_km":1070.1041607866,"semimajor_km":7446.6483227104,"source":"CELESTRAK","updated_at":"2026-09-20T09:00:24.866125Z"}}